INF005 LECO-LEBL

Flight info

Callsign INF005
Flight time 1h 18m
Altitude 32000
Route ROXER DCT LASKU DCT RONSI DCT OBETO M190 BLV M601 RONNY DCT SURCO M601 GRAUS
Aircraft B738/M-SDE2E3FGHIRWXY/LB1

Departure

Time 2026-04-16 21:10
Airport A Coruña Airport (LECO)

Arrival

Time 2026-04-16 22:28
Airport Josep Tarradellas Barcelona-El Prat Airport (LEBL)
Time Latitude Longitude Altitude Speed Heading
2026-04-16 20:49 43.30248 -8.38010 335 ft 0 kts 301°
2026-04-16 21:02 43.30247 -8.38009 335 ft 2 kts 301°
2026-04-16 21:03 43.30211 -8.37971 337 ft 4 kts 13°
2026-04-16 21:03 43.30200 -8.37976 336 ft 1 kts 31°
2026-04-16 21:05 43.30205 -8.37971 335 ft 5 kts 31°
2026-04-16 21:06 43.30254 -8.37929 339 ft 9 kts 37°
2026-04-16 21:06 43.30266 -8.37853 339 ft 9 kts 115°
2026-04-16 21:06 43.30236 -8.37779 337 ft 9 kts 120°
2026-04-16 21:06 43.30244 -8.37703 338 ft 9 kts 44°
2026-04-16 21:07 43.30302 -8.37651 335 ft 10 kts 31°
2026-04-16 21:07 43.30363 -8.37598 338 ft 11 kts 32°
2026-04-16 21:07 43.30430 -8.37543 337 ft 11 kts 31°
2026-04-16 21:07 43.30503 -8.37482 339 ft 15 kts 31°
2026-04-16 21:08 43.30593 -8.37409 348 ft 15 kts 31°
2026-04-16 21:08 43.30687 -8.37332 346 ft 18 kts 30°
2026-04-16 21:08 43.30797 -8.37244 342 ft 18 kts 31°
2026-04-16 21:08 43.30912 -8.37189 345 ft 17 kts
2026-04-16 21:09 43.30977 -8.37131 339 ft 10 kts 115°
2026-04-16 21:09 43.30928 -8.37136 350 ft 0 kts 210°
2026-04-16 21:09 43.30918 -8.37144 350 ft 14 kts 210°
2026-04-16 21:09 43.30601 -8.37400 344 ft 91 kts 210°
2026-04-16 21:10 43.29860 -8.38005 352 ft 154 kts 211°
2026-04-16 21:10 43.28869 -8.38801 864 ft 168 kts 209°
2026-04-16 21:10 43.27753 -8.39227 1635 ft 175 kts 172°
2026-04-16 21:10 43.26641 -8.38589 2318 ft 183 kts 146°
2026-04-16 21:11 43.25855 -8.37135 2730 ft 204 kts 100°
2026-04-16 21:11 43.25960 -8.35161 3233 ft 214 kts 72°
2026-04-16 21:11 43.26807 -8.33481 3759 ft 224 kts 36°
2026-04-16 21:11 43.28150 -8.32390 4421 ft 223 kts 30°
2026-04-16 21:12 43.29497 -8.31264 5011 ft 231 kts 31°
2026-04-16 21:12 43.30867 -8.30093 5651 ft 232 kts 30°
2026-04-16 21:12 43.32247 -8.28921 6334 ft 235 kts 30°
2026-04-16 21:12 43.33637 -8.27657 6894 ft 246 kts 41°
2026-04-16 21:13 43.34554 -8.25607 7288 ft 267 kts 72°
2026-04-16 21:13 43.35082 -8.23042 7564 ft 290 kts 75°
2026-04-16 21:13 43.35638 -8.20322 8177 ft 300 kts 74°
2026-04-16 21:13 43.36212 -8.17595 8920 ft 304 kts 74°
2026-04-16 21:14 43.36589 -8.14737 9660 ft 307 kts 96°
2026-04-16 21:14 43.36145 -8.11875 10419 ft 307 kts 108°
2026-04-16 21:14 43.35566 -8.08962 10761 ft 328 kts 108°
2026-04-16 21:14 43.34942 -8.05830 10940 ft 351 kts 108°
2026-04-16 21:15 43.34282 -8.02488 11108 ft 373 kts 107°
2026-04-16 21:15 43.33594 -7.98966 11421 ft 388 kts 107°
2026-04-16 21:15 43.32896 -7.95352 11982 ft 394 kts 107°
2026-04-16 21:15 43.32194 -7.91701 12681 ft 397 kts 107°
2026-04-16 21:16 43.31486 -7.88018 13370 ft 401 kts 107°
2026-04-16 21:16 43.30770 -7.84296 14035 ft 406 kts 107°
2026-04-16 21:16 43.30044 -7.80530 14664 ft 410 kts 107°
2026-04-16 21:16 43.29320 -7.76783 15287 ft 414 kts 107°
2026-04-16 21:17 43.28568 -7.72902 15960 ft 418 kts 107°
2026-04-16 21:17 43.27816 -7.69028 16608 ft 422 kts 107°
2026-04-16 21:17 43.27057 -7.65125 17226 ft 426 kts 108°
2026-04-16 21:17 43.26287 -7.61175 17834 ft 431 kts 108°
2026-04-16 21:18 43.25519 -7.57240 18445 ft 434 kts 108°
2026-04-16 21:18 43.24735 -7.53229 19019 ft 437 kts 108°
2026-04-16 21:18 43.23944 -7.49191 19568 ft 440 kts 108°
2026-04-16 21:18 43.23145 -7.45119 20119 ft 444 kts 108°
2026-04-16 21:19 43.22339 -7.41024 20656 ft 447 kts 108°
2026-04-16 21:19 43.21581 -7.36875 21174 ft 452 kts 102°
2026-04-16 21:19 43.21551 -7.32542 21647 ft 461 kts 82°
2026-04-16 21:19 43.22144 -7.28219 22215 ft 462 kts 80°
2026-04-16 21:20 43.22747 -7.23871 22699 ft 466 kts 80°
2026-04-16 21:20 43.23343 -7.19484 23119 ft 470 kts 81°
2026-04-16 21:20 43.23929 -7.15054 23531 ft 475 kts 81°
2026-04-16 21:20 43.24507 -7.10577 23953 ft 478 kts 81°
2026-04-16 21:21 43.25080 -7.06075 24359 ft 480 kts 81°
2026-04-16 21:21 43.25650 -7.01549 24729 ft 483 kts 81°
2026-04-16 21:21 43.26200 -6.97145 25065 ft 487 kts 81°
2026-04-16 21:21 43.26771 -6.92555 25434 ft 489 kts 81°
2026-04-16 21:22 43.27344 -6.87942 25798 ft 492 kts 81°
2026-04-16 21:22 43.27918 -6.83305 26154 ft 494 kts 81°
2026-04-16 21:22 43.28494 -6.78640 26473 ft 498 kts 81°
2026-04-16 21:22 43.29073 -6.73939 26800 ft 501 kts 81°
2026-04-16 21:23 43.29652 -6.69215 27141 ft 503 kts 81°
2026-04-16 21:23 43.30235 -6.64464 27466 ft 506 kts 81°
2026-04-16 21:23 43.30817 -6.59687 27764 ft 508 kts 81°
2026-04-16 21:23 43.31399 -6.54892 28057 ft 511 kts 81°
2026-04-16 21:24 43.31981 -6.50076 28452 ft 511 kts 81°
2026-04-16 21:24 43.32560 -6.45272 28958 ft 509 kts 81°
2026-04-16 21:24 43.32940 -6.42105 29311 ft 507 kts 81°
2026-04-16 21:24 43.33513 -6.37327 29809 ft 506 kts 81°
2026-04-16 21:25 43.34082 -6.32559 30205 ft 506 kts 81°
2026-04-16 21:25 43.34650 -6.27784 30559 ft 507 kts 81°
2026-04-16 21:25 43.35216 -6.23008 30948 ft 506 kts 82°
2026-04-16 21:25 43.35778 -6.18243 31324 ft 505 kts 82°
2026-04-16 21:26 43.36337 -6.13489 31714 ft 504 kts 82°
2026-04-16 21:26 43.36893 -6.08740 32107 ft 502 kts 82°
2026-04-16 21:26 43.37447 -6.03994 32236 ft 505 kts 82°
2026-04-16 21:27 43.38539 -5.94586 32235 ft 506 kts 82°
2026-04-16 21:27 43.39633 -5.85095 32227 ft 501 kts 82°
2026-04-16 21:28 43.40713 -5.75643 32238 ft 500 kts 82°
2026-04-16 21:28 43.41785 -5.66194 32233 ft 500 kts 82°
2026-04-16 21:29 43.42850 -5.56743 32233 ft 500 kts 82°
2026-04-16 21:29 43.43906 -5.47287 32234 ft 500 kts 82°
2026-04-16 21:30 43.44955 -5.37829 32229 ft 500 kts 82°
2026-04-16 21:30 43.45995 -5.28374 32237 ft 500 kts 82°
2026-04-16 21:31 43.47028 -5.18915 32236 ft 500 kts 82°
2026-04-16 21:31 43.48053 -5.09445 32237 ft 500 kts 82°
2026-04-16 21:32 43.49070 -4.99987 32242 ft 500 kts 82°
2026-04-16 21:32 43.50058 -4.90726 32233 ft 500 kts 82°
2026-04-16 21:33 43.50249 -4.81204 32251 ft 498 kts 96°
2026-04-16 21:33 43.49643 -4.71698 32234 ft 498 kts 96°
2026-04-16 21:34 43.49080 -4.62186 32240 ft 498 kts 96°
2026-04-16 21:34 43.48570 -4.52671 32232 ft 498 kts 96°
2026-04-16 21:35 43.48088 -4.43164 32239 ft 498 kts 95°
2026-04-16 21:35 43.47642 -4.33666 32240 ft 497 kts 95°
2026-04-16 21:36 43.47106 -4.24192 32240 ft 496 kts 96°
2026-04-16 21:36 43.46508 -4.14738 32239 ft 496 kts 96°
2026-04-16 21:37 43.45918 -4.05286 32239 ft 495 kts 96°
2026-04-16 21:37 43.45340 -3.95978 32241 ft 495 kts 96°
2026-04-16 21:38 43.44583 -3.86570 32241 ft 494 kts 102°
2026-04-16 21:38 43.43204 -3.77338 32238 ft 493 kts 104°
2026-04-16 21:39 43.41744 -3.68121 32242 ft 493 kts 104°
2026-04-16 21:39 43.40355 -3.58945 32232 ft 493 kts 103°
2026-04-16 21:40 43.38982 -3.49706 32240 ft 493 kts 103°
2026-04-16 21:40 43.37600 -3.40469 32224 ft 494 kts 103°
2026-04-16 21:41 43.36208 -3.31241 32246 ft 493 kts 103°
2026-04-16 21:41 43.34831 -3.22001 32240 ft 493 kts 103°
2026-04-16 21:42 43.33460 -3.12770 32233 ft 494 kts 103°
2026-04-16 21:42 43.32078 -3.03528 32236 ft 494 kts 103°
2026-04-16 21:43 43.30594 -2.94505 32221 ft 492 kts 110°
2026-04-16 21:43 43.27638 -2.86131 32244 ft 486 kts 125°
2026-04-16 21:44 43.23957 -2.78363 32235 ft 486 kts 126°
2026-04-16 21:44 43.20281 -2.70575 32227 ft 486 kts 125°
2026-04-16 21:45 43.16649 -2.62771 32224 ft 485 kts 124°
2026-04-16 21:45 43.13030 -2.54974 32225 ft 485 kts 124°
2026-04-16 21:46 43.09406 -2.47193 32227 ft 484 kts 124°
2026-04-16 21:46 43.05780 -2.39432 32219 ft 484 kts 125°
2026-04-16 21:47 43.02148 -2.31678 32217 ft 484 kts 125°
2026-04-16 21:47 42.98532 -2.23978 32192 ft 484 kts 124°
2026-04-16 21:48 42.94888 -2.16168 32206 ft 484 kts 124°
2026-04-16 21:48 42.91310 -2.08465 32206 ft 484 kts 124°
2026-04-16 21:49 42.87697 -2.00714 32210 ft 484 kts 124°
2026-04-16 21:49 42.84122 -1.93073 32192 ft 485 kts 124°
2026-04-16 21:50 42.80492 -1.85337 32186 ft 485 kts 123°
2026-04-16 21:50 42.76862 -1.77606 32186 ft 485 kts 124°
2026-04-16 21:51 42.73237 -1.69858 32187 ft 485 kts 121°
2026-04-16 21:51 42.70284 -1.61597 32188 ft 486 kts 115°
2026-04-16 21:52 42.67445 -1.53254 32180 ft 487 kts 116°
2026-04-16 21:52 42.64509 -1.44967 32186 ft 487 kts 116°
2026-04-16 21:53 42.61573 -1.36688 32186 ft 487 kts 116°
2026-04-16 21:53 42.58638 -1.28415 32180 ft 486 kts 116°
2026-04-16 21:54 42.55700 -1.20156 32182 ft 486 kts 116°
2026-04-16 21:54 42.52759 -1.11909 32185 ft 486 kts 115°
2026-04-16 21:55 42.49810 -1.03663 32174 ft 485 kts 116°
2026-04-16 21:55 42.46905 -0.95566 32182 ft 485 kts 116°
2026-04-16 21:56 42.43955 -0.87358 32167 ft 485 kts 116°
2026-04-16 21:56 42.40998 -0.79162 32166 ft 484 kts 116°
2026-04-16 21:57 42.38035 -0.70983 32184 ft 484 kts 115°
2026-04-16 21:57 42.35072 -0.62821 32177 ft 484 kts 115°
2026-04-16 21:58 42.32102 -0.54661 32180 ft 483 kts 115°
2026-04-16 21:58 42.29128 -0.46519 32188 ft 483 kts 115°
2026-04-16 21:59 42.26152 -0.38389 32188 ft 483 kts 115°
2026-04-16 21:59 42.23169 -0.30256 32191 ft 483 kts 115°
2026-04-16 22:00 42.20180 -0.22137 32190 ft 483 kts 116°
2026-04-16 22:00 42.17183 -0.14027 32184 ft 483 kts 115°
2026-04-16 22:01 42.14186 -0.05936 32193 ft 483 kts 115°
2026-04-16 22:01 42.11230 0.02027 32179 ft 483 kts 115°
2026-04-16 22:01 42.09719 0.06091 31557 ft 488 kts 115°
2026-04-16 22:02 42.08201 0.10168 30868 ft 486 kts 116°
2026-04-16 22:02 42.06683 0.14236 30072 ft 486 kts 116°
2026-04-16 22:02 42.05164 0.18299 29218 ft 486 kts 116°
2026-04-16 22:02 42.03647 0.22349 28373 ft 485 kts 116°
2026-04-16 22:03 42.02137 0.26374 28026 ft 473 kts 116°
2026-04-16 22:03 42.00674 0.30271 27743 ft 462 kts 116°
2026-04-16 22:03 41.99250 0.34061 27563 ft 449 kts 116°
2026-04-16 22:03 41.97864 0.37761 27352 ft 438 kts 115°
2026-04-16 22:04 41.96686 0.41513 26858 ft 434 kts 109°
2026-04-16 22:04 41.95702 0.45329 26405 ft 431 kts 107°
2026-04-16 22:04 41.94787 0.49146 25942 ft 428 kts 107°
2026-04-16 22:04 41.93881 0.52943 25467 ft 426 kts 107°
2026-04-16 22:05 41.92960 0.56717 24996 ft 424 kts 108°
2026-04-16 22:05 41.92024 0.60465 24515 ft 423 kts 108°
2026-04-16 22:05 41.91077 0.64190 24043 ft 421 kts 108°
2026-04-16 22:05 41.90135 0.67850 23530 ft 420 kts 108°
2026-04-16 22:06 41.89178 0.71548 22999 ft 418 kts 109°
2026-04-16 22:06 41.87276 0.78865 22051 ft 412 kts 108°
2026-04-16 22:06 41.86332 0.82488 21587 ft 410 kts 108°
2026-04-16 22:07 41.85396 0.86080 21128 ft 407 kts 108°
2026-04-16 22:07 41.84452 0.89698 20662 ft 405 kts 108°
2026-04-16 22:07 41.83536 0.93205 20216 ft 402 kts 108°
2026-04-16 22:07 41.82612 0.96734 19753 ft 401 kts 108°
2026-04-16 22:08 41.81714 1.00163 19311 ft 399 kts 108°
2026-04-16 22:08 41.80805 1.03633 18861 ft 397 kts 108°
2026-04-16 22:08 41.79888 1.07124 18392 ft 396 kts 108°
2026-04-16 22:08 41.78973 1.10600 17872 ft 395 kts 108°
2026-04-16 22:09 41.78061 1.14061 17402 ft 392 kts 108°
2026-04-16 22:09 41.77155 1.17489 16956 ft 390 kts 108°
2026-04-16 22:09 41.76252 1.20901 16507 ft 387 kts 108°
2026-04-16 22:09 41.75356 1.24284 16063 ft 385 kts 108°
2026-04-16 22:10 41.74463 1.27657 15625 ft 383 kts 108°
2026-04-16 22:10 41.73574 1.31006 15198 ft 381 kts 108°
2026-04-16 22:10 41.72689 1.34339 14752 ft 379 kts 108°
2026-04-16 22:10 41.71806 1.37657 14311 ft 378 kts 108°
2026-04-16 22:11 41.70925 1.40962 13848 ft 377 kts 108°
2026-04-16 22:11 41.70331 1.43193 13526 ft 376 kts 108°
2026-04-16 22:11 41.69171 1.47535 12915 ft 373 kts 108°
2026-04-16 22:11 41.68583 1.49735 12620 ft 371 kts 108°
2026-04-16 22:12 41.67715 1.52977 12188 ft 369 kts 108°
2026-04-16 22:12 41.66852 1.56201 11762 ft 367 kts 109°
2026-04-16 22:12 41.65993 1.59401 11327 ft 365 kts 109°
2026-04-16 22:12 41.65151 1.62534 10899 ft 359 kts 109°
2026-04-16 22:13 41.64327 1.65594 10717 ft 340 kts 109°
2026-04-16 22:13 41.63546 1.68490 10556 ft 323 kts 109°
2026-04-16 22:13 41.62801 1.71252 10412 ft 308 kts 109°
2026-04-16 22:13 41.62089 1.73890 10281 ft 295 kts 109°
2026-04-16 22:14 41.61401 1.76440 10136 ft 291 kts 109°
2026-04-16 22:14 41.60711 1.78993 9822 ft 293 kts 109°
2026-04-16 22:14 41.60011 1.81585 9408 ft 299 kts 109°
2026-04-16 22:14 41.59302 1.84201 9098 ft 300 kts 109°
2026-04-16 22:15 41.58589 1.86826 8766 ft 302 kts 109°
2026-04-16 22:15 41.57872 1.89464 8484 ft 302 kts 109°
2026-04-16 22:15 41.57164 1.92066 8191 ft 294 kts 109°
2026-04-16 22:15 41.56471 1.94599 7904 ft 286 kts 109°
2026-04-16 22:16 41.55797 1.97065 7628 ft 279 kts 109°
2026-04-16 22:16 41.55137 1.99476 7352 ft 273 kts 109°
2026-04-16 22:16 41.54518 2.01742 7093 ft 268 kts 109°
2026-04-16 22:16 41.53884 2.04058 6828 ft 263 kts 109°
2026-04-16 22:17 41.53262 2.06323 6566 ft 258 kts 109°
2026-04-16 22:17 41.52650 2.08552 6291 ft 253 kts 109°
2026-04-16 22:17 41.52048 2.10738 6026 ft 249 kts 110°
2026-04-16 22:17 41.51354 2.12841 5805 ft 248 kts 115°
2026-04-16 22:18 41.50614 2.14890 5597 ft 239 kts 109°
2026-04-16 22:18 41.50223 2.16972 5372 ft 225 kts 101°
2026-04-16 22:18 41.49904 2.18965 5152 ft 213 kts 102°
2026-04-16 22:18 41.49599 2.20847 4955 ft 203 kts 102°
2026-04-16 22:19 41.49305 2.22675 4808 ft 199 kts 102°
2026-04-16 22:19 41.49026 2.24421 4664 ft 187 kts 102°
2026-04-16 22:19 41.48759 2.26114 4334 ft 186 kts 102°
2026-04-16 22:19 41.48498 2.27805 4038 ft 186 kts 102°
2026-04-16 22:20 41.48244 2.29470 3834 ft 180 kts 102°
2026-04-16 22:20 41.47848 2.31025 3546 ft 179 kts 127°
2026-04-16 22:20 41.46860 2.32022 3207 ft 179 kts 155°
2026-04-16 22:20 41.45778 2.32821 2927 ft 179 kts 152°
2026-04-16 22:21 41.44718 2.33666 2654 ft 180 kts 153°
2026-04-16 22:21 41.43612 2.34450 2402 ft 177 kts 158°
2026-04-16 22:21 41.42537 2.35182 2311 ft 168 kts 158°
2026-04-16 22:21 41.41495 2.35900 2374 ft 173 kts 158°
2026-04-16 22:22 41.40381 2.36399 2362 ft 167 kts 186°
2026-04-16 22:22 41.39300 2.36174 2370 ft 153 kts 195°
2026-04-16 22:22 41.38277 2.35851 2358 ft 150 kts 213°
2026-04-16 22:22 41.37708 2.34789 2396 ft 146 kts 255°
2026-04-16 22:23 41.37275 2.33533 2384 ft 153 kts 236°
2026-04-16 22:23 41.36746 2.32334 2368 ft 148 kts 248°
2026-04-16 22:23 41.36341 2.31096 2362 ft 145 kts 247°
2026-04-16 22:23 41.35922 2.29853 2376 ft 149 kts 246°
2026-04-16 22:24 41.35489 2.28590 2388 ft 151 kts 244°
2026-04-16 22:24 41.35045 2.27323 2391 ft 151 kts 246°
2026-04-16 22:24 41.34616 2.26053 2393 ft 150 kts 245°
2026-04-16 22:24 41.34182 2.24779 2334 ft 151 kts 245°
2026-04-16 22:25 41.33766 2.23547 2270 ft 144 kts 245°
2026-04-16 22:25 41.33347 2.22357 2094 ft 139 kts 244°
2026-04-16 22:25 41.32935 2.21186 1791 ft 140 kts 245°
2026-04-16 22:25 41.32535 2.20006 1553 ft 141 kts 245°
2026-04-16 22:26 41.32134 2.18833 1382 ft 138 kts 245°
2026-04-16 22:26 41.31743 2.17683 1255 ft 136 kts 245°
2026-04-16 22:26 41.31338 2.16513 1059 ft 143 kts 245°
2026-04-16 22:26 41.30922 2.15304 881 ft 144 kts 245°
2026-04-16 22:27 41.30494 2.14084 672 ft 147 kts 244°
2026-04-16 22:27 41.30067 2.12831 474 ft 150 kts 244°
2026-04-16 22:27 41.29640 2.11549 240 ft 152 kts 244°
2026-04-16 22:27 41.29209 2.10304 48 ft 145 kts 245°
2026-04-16 22:28 41.28814 2.09154 6 ft 121 kts 244°
2026-04-16 22:28 41.28527 2.08321 9 ft 61 kts 245°
2026-04-16 22:28 41.28425 2.07974 6 ft 38 kts 257°
2026-04-16 22:28 41.28416 2.07754 4 ft 19 kts 276°
2026-04-16 22:29 41.28449 2.07642 2 ft 9 kts 317°
2026-04-16 22:29 41.28498 2.07659 2 ft 8 kts 67°
2026-04-16 22:29 41.28519 2.07727 3 ft 8 kts 66°
2026-04-16 22:29 41.28544 2.07801 3 ft 12 kts 66°
2026-04-16 22:30 41.28582 2.07915 2 ft 14 kts 65°
2026-04-16 22:30 41.28655 2.07966 3 ft 13 kts 341°
2026-04-16 22:30 41.28737 2.07914 2 ft 13 kts 334°
2026-04-16 22:30 41.28800 2.07876 2 ft 9 kts 335°
2026-04-16 22:31 41.28860 2.07855 2 ft 9 kts 16°
2026-04-16 22:31 41.28899 2.07920 2 ft 9 kts 63°
2026-04-16 22:31 41.28924 2.07987 3 ft 6 kts 63°
2026-04-16 22:31 41.28937 2.08020 3 ft 4 kts 55°
2026-04-16 22:32 41.28957 2.08012 2 ft 4 kts 292°
2026-04-16 22:32 41.28971 2.07973 2 ft 6 kts 314°
2026-04-16 22:32 41.28990 2.07958 2 ft 2 kts 329°
2026-04-16 22:32 41.28994 2.07955 2 ft 0 kts 332°
2026-04-16 22:33 41.28995 2.07954 2 ft 0 kts 335°